Regional Weather Roundup
Issued by NWS Sterling, VA

Home | Current Version | Previous Version | Graphics & Text | Print | Product List | Glossary On
Versions: 1 2 3 4 5 6 7 8 9 10 11 12 13 14 15 16 17 18 19 20 21 22 23 24 25 26 27
000
ASUS41 KLWX 260311
RWRLWX

REGIONAL WEATHER ROUNDUP
NATIONAL WEATHER SERVICE BALTIMORE MD/WASHINGTON DC
1100 PM EDT TUE APR 25 2017

Note: "FAIR" indicates few or no clouds below 12,000 feet
with no significant weather and/or obstructions to visibility.
 TC=TEMPERATURE CELSIUS

 * =Non NWS site. Station does not report precipitation (e.g. rain,
    snow, etc.), thunder, or fog.

DCZ001-MDZ009-015-VAZ040>042-051-053>054-260400-
WASHINGTON METRO

CITY           SKY/WX    TMP DP  RH WIND       PRES   REMARKS
WASHINGTON NAT DRIZZLE   58  58 100 N13       29.75S FOG
DULLES         DRIZZLE   58  56  93 N8        29.76F FOG
ANDREWS AFB    LGT RAIN  57  55  94 N8        29.73S
FT BELVOIR     HVY RAIN  57  55  94 NW5       29.74F FOG
QUANTICO       CLOUDY    59  58  96 N9        29.75S
COLLEGE PARK*  CLOUDY    57  55  95 N3        29.75S
LEESBURG*      CLOUDY    57  57 100 N8        29.78F FOG
MANASSAS*        N/A     58  57  97 N7        29.76S FOG

$$

MDZ006>007-011-014-260400-
BALTIMORE METRO

CITY           SKY/WX    TMP DP  RH WIND       PRES   REMARKS
BWI AIRPORT    LGT RAIN  57  57 100 NE8       29.74S FOG
MD SCIENCE CTR   N/A     59  55  87 MISG      29.74F
MARTIN STATE   CLOUDY    59  59 100 N8        29.76S
ANNAPOLIS      LGT RAIN  59  54  83 N8        29.73S
FORT MEADE*    CLOUDY    55  54  94 N5        29.77F

$$

MDZ012-015-019>023-260400-
MARYLAND EASTERN SHORE

CITY           SKY/WX    TMP DP  RH WIND       PRES   REMARKS
OCEAN CITY     FOG       59  58  96 NE3       29.66F VSB 1/2
SALISBURY      LGT RAIN  60  60 100 N12       29.66F FOG
BAY BRIDGE AP* CLOUDY    57  55  94 NE12G17   29.73S
CAMBRIDGE*     CLOUDY    59  59 100 NE12      29.69F FOG
EASTON*        CLOUDY    58  57  94 NE10      29.74F FOG

$$

MDZ017>025-260400-
SOUTHERN MARYLAND

CITY           SKY/WX    TMP DP  RH WIND       PRES   REMARKS
PATUXENT RIVER CLOUDY    59  59 100 N14       29.69S FOG
ST INIGOES     NOT AVBL
LEONARDTOWN*   CLOUDY    57  55  94 N3        29.72R

$$

MDZ003>005-260400-
NORTH CENTRAL MARYLAND

CITY           SKY/WX    TMP DP  RH WIND       PRES   REMARKS
FREDERICK*     DRIZZLE  N/A N/A N/A N7        29.80F
HAGERSTOWN APT CLOUDY    56  55  97 N8        29.79F FOG
WESTMINSTER*   CLOUDY    55  55 100 NE5       29.77F FOG

$$

MDZ501>502-260400-
WESTERN MARYLAND

CITY           SKY/WX    TMP DP  RH WIND       PRES   REMARKS
OAKLAND*       FOG       46  46 100 SE10      29.81S VSB 1/2
CUMBERLAND*    CLOUDY    55  55 100 CALM      29.85S

$$

VAZ025>031-260400-
SHENANDOAH VALLEY

CITY           SKY/WX    TMP DP  RH WIND       PRES   REMARKS
WINCHESTER*    CLOUDY    54  54 100 N5        29.79S FOG
FRONT ROYAL*   CLOUDY    54  54 100 N3        29.78S
LURAY*         CLOUDY    54  54 100 CALM      29.79S
NEW MARKET*    CLOUDY    55  53  95 CALM      29.78F
STAUNTON*      CLOUDY    54  53  95 N7        29.81R
WAYNESBORO*    CLOUDY    53  53 100 N9        29.79S

$$

WVZ021-048>050-054>055-260400-
EASTERN WEST VIRGINIA PANHANDLE

CITY           SKY/WX    TMP DP  RH WIND       PRES   REMARKS
MARTINSBURG    CLOUDY    56  54  93 N8        29.78F FOG
PETERSBURG*    CLOUDY    56  55  97 CALM      29.82S

$$

VAZ036>039-050-260400-
CENTRAL FOOTHILLS

CITY           SKY/WX    TMP DP  RH WIND       PRES   REMARKS
CHARLOTTESVILL CLOUDY    59  55  87 CALM      29.76R
CULPEPER*      CLOUDY    58  58 100 N6        29.77S FOG
ORANGE*        CLOUDY    55  55 100 CALM      29.76S FOG
GORDONSVILLE*  CLOUDY    58  56  94 N5        29.75S
WARRENTON*     CLOUDY    59  56  89 N6        29.76S FOG

$$

VAZ055>057-260400-
NORTH AND CENTRAL PIEDMONT

CITY           SKY/WX    TMP DP  RH WIND       PRES   REMARKS
FREDERICKSBRG* CLOUDY    58  58 100 N9        29.73S FOG
STAFFORD*      CLOUDY    57  57 100 N7        29.78F FOG

$$

NCZ024-NYZ072-PAZ021-071-VAZ022-071-260400-
OTHER REGIONAL OBSERVATIONS

CITY           SKY/WX    TMP DP  RH WIND       PRES   REMARKS
NEW YORK CITY  LGT RAIN  51  51 100 E10G26    29.91S FOG
PHILADELPHIA   CLOUDY    56  54  93 NE16      29.78F
PITTSBURGH     CLOUDY    55  54  96 E6        29.79F
ROANOKE        CLOUDY    57  52  83 N5        29.80S
RICHMOND       CLOUDY    60  60 100 N12       29.71S
RALEIGH        CLOUDY    62  59  90 VRB5      29.75R

$$

ANZ530>537-260400-
MARINE OBSERVATIONS

STATION/POSITION TIME  TEMP    WIND        PRES
                       AIR SEA DIR/SP/G
                 (UTC) (F)     (DEG/KT/KT) (MB)
THOMAS PT LIGHT  0300   56 56   10/ 15/ 16   N/A
BALT KEY BRIDGE  0248   57      40/ 12/ 15 1006.9F
COVE POINT       0248   58      10/ 13/ 16 1006.2F
LEWISETTA        0248   60 61   10/  8/ 11 1004.6F
SOLOMONS ISLAND  0248   59 60   10/ 13/ 18   N/A
PINEY POINT      0248           30/  9/ 12   N/A

$$





USA.gov is the U.S. government's official web portal to all federal, state and local government web resources and services.